Regional Weather Roundup
Issued by NWS

Home | Current Version | Previous Version | Graphics & Text | Print | Product List | Glossary On
Versions: 1 2 3 4 5 6 7 8 9 10 11 12 13 14 15 16 17 18 19 20 21 22 23 24 25 26 27 28 29 30 31 32 33 34 35 36 37 38 39 40 41 42 43 44 45 46 47 48 49 50
000
ASUS43 KMKX 011900
RWRWI

WISCONSIN REGIONAL WEATHER ROUNDUP
NATIONAL WEATHER SERVICE MILWAUKEE/SULLIVAN WI
200 PM CDT SAT AUG 01 2015

NOTE: "FAIR" INDICATES FEW OR NO CLOUDS BELOW 12,000 FEET WITH NO
SIGNIFICANT WEATHER AND/OR OBSTRUCTIONS TO VISIBILITY.

WIZ001-002-006>008-014>016-023>028-012000-
NORTHWEST WISCONSIN

CITY           SKY/WX    TMP DP  RH WIND       PRES   REMARKS
SUPERIOR ARPT  MOSUNNY   80  55  41 NW9G16    29.87F HX  80
ASHLAND        SUNNY     81  51  35 W10G20    29.87F HX  80
HAYWARD        MOSUNNY   80  50  34 W8        29.91F HX  80
SIREN          SUNNY     80  50  34 W14       29.93F
CUMBERLAND     SUNNY     77  52  41 W10       29.94F
RICE LAKE      SUNNY     78  52  40 W9        29.95F
CHETEK         SUNNY     79  53  40 MISG      29.94F
LADYSMITH      MOSUNNY   79  54  41 W9        29.95F
EAU CLAIRE     SUNNY     81  53  37 W9        29.93F HX  80
MENOMONIE      SUNNY     82  52  34 SW10      29.93F HX  81
NEW RICHMOND   SUNNY     81  48  31 W8        29.94F HX  80
OSCEOLA        SUNNY     80  53  38 CALM      29.96F HX  80
$$

WIZ003>005-009-010-017-018-012000-
NORTH CENTRAL WISCONSIN

CITY           SKY/WX    TMP DP  RH WIND       PRES   REMARKS
MANITOWISH WTR PTSUNNY   74  51  43 NW9G17    29.91F
ARBOR VITAE    MOSUNNY   76  52  43 W8        29.92F
WOODRUFF       MOSUNNY   76  52  43 W8        29.92F
RHINELANDER    MOSUNNY   78  51  38 NW9       29.93F
EAGLE RIVER    MOSUNNY   74  42  31 NW15G22   29.92S
LAND O LAKES   SUNNY     76  46  35 W13       29.92S
PHILLIPS       PTSUNNY   76  52  43 W8        29.92F
TOMAHAWK       PTSUNNY   75  52  43 NW10      29.94F
MEDFORD        MOSUNNY   76  52  43 W9        29.94F
MERRILL        NOT AVBL
$$

WIZ029-030-035-036-043>047-012000-
CENTRAL WISCONSIN

CITY           SKY/WX    TMP DP  RH WIND       PRES   REMARKS
WAUSAU         MOSUNNY   81  47  30 NW12G18   29.91F HX  80
MOSINEE        MOSUNNY   79  48  34 W14G24    29.94F
MARSHFIELD     MOSUNNY   80  49  33 NW9G20    29.95F
STEVENS POINT  MOSUNNY   79  49  35 W12G18    29.94F
WAUPACA        MOSUNNY   84  45  25 NW13G20   29.92F HX  82
WAUTOMA        NOT AVBL
WISC RAPIDS    MOSUNNY   82  49  31 W8G17     29.95F HX  81
CAMP DOUGLAS   NOT AVBL
$$

WIZ011>013-019>022-031-037>040-048>050-012000-
NORTHEAST WISCONSIN

CITY           SKY/WX    TMP DP  RH WIND       PRES   REMARKS
ANTIGO         MOSUNNY   75  50  41 NW10G18   29.94F
SHAWANO        MOSUNNY   80  50  34 W8        29.91F HX  80
OCONTO         MOSUNNY   81  51  35 NW9G20    29.88F HX  80
STURGEON BAY   SUNNY     79  52  38 W13       29.91S
GREEN BAY      MOSUNNY   81  53  37 NW13G21   29.90F HX  80
MANITOWOC      NOT AVBL
APPLETON       MOSUNNY   81  45  28 NW17G26   29.92F
CLINTONVILLE   MOSUNNY   81  43  26 NW12G18   29.90F
OSHKOSH        MOSUNNY   81  51  35 NW8G22    29.91F HX  80
$$

WIZ032>034-041-042-053>061-012000-
SOUTHWEST WISCONSIN

CITY           SKY/WX    TMP DP  RH WIND       PRES   REMARKS
LA CROSSE      MOSUNNY   83  63  50 N6        29.93F HX  84
SPARTA         SUNNY     82  53  37 NW5       29.95F HX  81
VIROQUA        MOSUNNY   79  63  57 W6        29.97F HX  80
BOSCOBEL       MOSUNNY   89  65  44 NW8       29.93F HX  91
PRAIRIE DU CHI MOSUNNY   85  61  43 W8        29.93F HX  85
PLATTEVILLE    MOSUNNY   84  66  53 W16G22    29.95F HX  86
$$

WIZ056-057-062-063-064-067-068-012000-
SOUTH CENTRAL WISCONSIN

CITY           SKY/WX    TMP DP  RH WIND       PRES   REMARKS
REEDSBURG      SUNNY     83  60  46 W3        29.94F HX  83
BARABOO/DELLS  PTSUNNY   82  52  35 W6        29.95F HX  81
LONE ROCK      NOT AVBL
MINERAL POINT  SUNNY     82  63  51 W13G18    29.96F HX  83
MADISON        MOSUNNY   82  61  48 W5        29.93F HX  83
MIDDLETON      MOSUNNY   85  59  42 W14       29.95F HX  84
WATERTOWN      PTSUNNY   78  60  52 CALM      29.95F HX  80
MONROE         MOSUNNY   82  59  44 W16G24    29.95F HX  82
JANESVILLE     MOSUNNY   88  57  35 W14G22    29.93F HX  86
$$

WIZ051-052-058>065-066-070>072-012000-
SOUTHEAST WISCONSIN

CITY           SKY/WX    TMP DP  RH WIND       PRES   REMARKS
MILWAUKEE      PTSUNNY   81  52  36 W10       29.94F HX  80
WAUKESHA       MOSUNNY   77  52  41 W12       29.97F
MILWAUKEE/TIMM PTSUNNY   81  50  34 W9        29.95S HX  80
RACINE         PTSUNNY   83  57  41 NW12      29.95F HX  82
BURLINGTON     SUNNY     81  56  42 W10       29.94F HX  81
KENOSHA        MOSUNNY   80  60  50 W10       29.94F HX  81
FOND DU LAC    SUNNY     83  53  35 W13G23    29.92F HX  82
SHEBOYGAN      SUNNY     81  52  36 W14G23    29.91F HX  80
WEST BEND      MOSUNNY   79  48  34 W13       29.93F
JUNEAU         PTSUNNY   74  55  51 SW7       29.96F
$$

LSZ147-162-012000-
LAKE SUPERIOR

STATION/POSITION TIME  TEMP    WIND        PRES    WAVE
                       AIR SEA DIR/SP/G            HT/PER
                 (UTC) (F)     (DEG/KT/KT) (MB)    (FT/S)
W MID LAKE BUOY  1750   58 54  220/ 12/ 14 1010.6F   2/ 4
DEVILS ISLAND    1800   68     230/ 11/ 14 1011.1F
PORT WING        1800   75     260/  9/ 11 1011.9F
SAXON HARBOR     1840   78                 1011.5F
$$

LMZ867-665-643>646-012000-
LAKE MICHIGAN

STATION/POSITION TIME  TEMP    WIND        PRES    WAVE
                       AIR SEA DIR/SP/G            HT/PER
                 (UTC) (F)     (DEG/KT/KT) (MB)    (FT/S)
CHAMBERS ISLAND  1800   78     300/  2/  7 1011.5F
S GREEN BAY BUOY 1800   71 70  250/  6/  8 1013.7F
N MID LAKE BUOY  1750   68 68  240/ 12/ 14 1011.2F   1/ 3
NORTHPORT PIER   1800   76     280/  5/  9 1011.5F
SISTER BAY       1814   81     280/  8/  9   N/A
ALGOMA LAKESHORE 1812          310/ 11/ 17   N/A
KEWAUNEE LAKESHO 1800   77     310/  8/ 13 1011.9F
SHEBOYGAN LAKESH 1800   78     290/ 15/ 19 1012.9F
PORT WASHINGTON  1840   83     270/  7/ 12 1013.5F
ATWATER BUOY     1800   74 67  290/  6/  6 1015.2F
MILWAUKEE LAKESH 1800   78     280/  9/ 12   N/A
KENOSHA   LAKESH 1800   73      90/  5/ 10 1013.9F
$$

TC  - TEMPERATURE IN CELSIUS
VSB - VISIBILITY IN STATUTE MILES
WCI - WIND CHILL INDEX
HX  - HEAT INDEX



USA.gov is the U.S. government's official web portal to all federal, state and local government web resources and services.